GW2055 Weather Reports


time (UTC)temp
C
wind
direction
speed
KPH
gust
KPH
rain 1hr
cm
rain 24hr
cm
rain mn
cm
humidity
%
barometer
mb
20260906194607 41 206 1.6 6.4 0.00 0.00 0.00 28 1012.1
20260906193103 41 0 1.6 11.3 0.00 0.00 0.00 29 1012.2
20260906191615 41 0 0.0 12.9 0.00 0.00 0.00 29 1012.2
20260906190059 40 56 4.8 16.1 0.00 0.00 0.00 30 1012.4
20260906184603 41 153 3.2 14.5 0.00 0.00 0.00 28 1012.5
20260906183107 41 197 0.0 8.0 0.00 0.00 0.00 29 1012.8
20260906181600 41 0 1.6 4.8 0.00 0.00 0.00 33 1013.0
20260906180116 40 0 0.0 4.8 0.00 0.00 0.00 33 1013.3
20260906174605 41 49 0.0 6.4 0.00 0.00 0.00 31 1013.6
20260906173102 40 232 0.0 6.4 0.00 0.00 0.00 33 1014.0
20260906171605 40 213 0.0 4.8 0.00 0.00 0.00 32 1014.2
20260906170123 40 50 1.6 6.4 0.00 0.00 0.00 35 1014.4
20260906164602 40 36 0.0 3.2 0.00 0.00 0.00 32 1014.5
20260906163116 40 284 0.0 6.4 0.00 0.00 0.00 35 1014.6
20260906161607 38 288 0.0 3.2 0.00 0.00 0.00 36 1014.6
20260906160104 38 0 1.6 4.8 0.00 0.00 0.00 37 1014.6
20260906154600 37 0 0.0 4.8 0.00 0.00 0.00 41 1014.7
20260906153100 36 0 0.0 4.8 0.00 0.00 0.00 44 1014.6
20260906151605 35 0 0.0 4.8 0.00 0.00 0.00 47 1014.5
20260906150111 35 0 0.0 1.6 0.00 0.00 0.00 47 1014.6
20260906144603 33 0 0.0 4.8 0.00 0.00 0.00 50 1014.7
20260906143101 32 0 0.0 3.2 0.00 0.00 0.00 54 1014.7
20260906141600 31 0 0.0 4.8 0.00 0.00 0.00 57 1014.6
20260906134601 29 0 0.0 1.6 0.00 0.00 0.00 65 1014.5
20260906133133 28 0 0.0 1.6 0.00 0.00 0.00 73 1014.2
20260906131600 26 0 0.0 0.0 0.00 0.00 0.00 77 1014.1
20260906130115 25 0 0.0 0.0 0.00 0.00 0.00 82 1013.9
20260906124601 24 0 0.0 0.0 0.00 0.00 0.00 83 1013.8
20260906123104 23 0 0.0 0.0 0.00 0.00 0.00 84 1013.7
20260906121601 23 0 0.0 0.0 0.00 0.00 0.00 84 1013.6
20260906120105 23 0 0.0 0.0 0.00 0.00 0.00 84 1013.4
20260906114601 24 0 0.0 0.0 0.00 0.00 0.00 83 1013.4
20260906113101 24 0 0.0 0.0 0.00 0.00 0.00 82 1013.4
20260906111617 25 0 0.0 0.0 0.00 0.00 0.00 82 1013.2
20260906104604 25 0 0.0 0.0 0.00 0.00 0.00 81 1013.3
20260906103104 25 0 0.0 0.0 0.00 0.00 0.00 81 1013.3
20260906101601 25 0 0.0 1.6 0.00 0.00 0.00 80 1013.2
20260906100104 25 0 0.0 0.0 0.00 0.00 0.00 80 1013.4
20260906094600 25 0 0.0 0.0 0.00 0.00 0.00 80 1013.3
20260906093057 25 0 0.0 1.6 0.00 0.00 0.00 79 1013.0
20260906091602 25 0 0.0 0.0 0.00 0.00 0.00 78 1012.9
20260906090104 25 0 0.0 0.0 0.00 0.00 0.00 78 1012.9
20260906084601 25 0 0.0 1.6 0.00 0.00 0.00 78 1012.9
20260906083100 25 0 0.0 1.6 0.00 0.00 0.00 78 1012.8
20260906081603 25 0 0.0 1.6 0.00 0.00 0.00 77 1012.8
20260906080107 25 0 0.0 4.8 0.00 0.00 0.00 77 1012.5
20260906074602 26 0 0.0 0.0 0.00 0.00 0.00 74 1012.4
20260906073059 26 0 0.0 0.0 0.00 0.00 0.00 73 1012.5
20260906071602 26 0 0.0 0.0 0.00 0.00 0.00 73 1012.5
20260906070103 26 0 0.0 0.0 0.00 0.00 0.00 71 1012.5
20260906064600 27 0 0.0 1.6 0.00 0.00 0.00 70 1012.6
20260906063104 27 0 0.0 0.0 0.00 0.00 0.00 69 1012.6
20260906061604 27 0 0.0 0.0 0.00 0.00 0.00 67 1012.5
20260906054607 27 0 0.0 0.0 0.00 0.00 0.00 65 1012.5
20260906053103 27 0 0.0 0.0 0.00 0.00 0.00 66 1012.7
20260906051612 28 0 0.0 0.0 0.00 0.00 0.00 66 1012.8
20260906050104 28 0 0.0 0.0 0.00 0.00 0.00 64 1012.6
20260906044609 28 0 0.0 0.0 0.00 0.00 0.00 65 1012.5
20260906043100 28 0 0.0 0.0 0.00 0.00 0.00 64 1012.4
20260906041601 28 0 0.0 0.0 0.00 0.00 0.00 64 1012.4
20260906040139 29 0 0.0 0.0 0.00 0.00 0.00 64 1012.5
20260906034610 29 0 0.0 0.0 0.00 0.00 0.00 64 1012.5
20260906033106 29 0 0.0 0.0 0.00 0.00 0.00 64 1012.4
20260906031600 30 0 0.0 0.0 0.00 0.00 0.00 62 1012.3
20260906030104 30 0 0.0 0.0 0.00 0.00 0.00 60 1012.1
20260906024613 30 0 0.0 0.0 0.00 0.00 0.00 60 1012.1
20260906023104 31 0 0.0 0.0 0.00 0.00 0.00 58 1011.8
20260906021603 31 0 0.0 0.0 0.00 0.00 0.00 56 1011.7
20260906020106 32 0 0.0 0.0 0.00 0.00 0.00 53 1011.7
20260906014600 32 0 0.0 0.0 0.00 0.00 0.00 51 1011.4
20260906013114 33 0 0.0 0.0 0.00 0.00 0.00 49 1011.1
20260906011602 34 0 0.0 0.0 0.00 0.00 0.00 44 1011.1
20260906010104 35 0 0.0 0.0 0.00 0.00 0.00 41 1011.1
20260906004604 36 0 0.0 0.0 0.00 0.00 0.00 38 1011.1
20260906003104 36 0 0.0 0.0 0.00 0.00 0.00 37 1011.2
20260906001610 37 0 0.0 3.2 0.00 0.00 0.00 35 1011.2
20260906000059 38 114 0.0 3.2 0.00 0.00 0.00 34 1011.2
20260905234604 38 0 0.0 3.2 0.00 0.00 0.00 34 1011.2
20260905233102 38 0 0.0 4.8 0.00 0.00 0.00 34 1011.0
20260905231600 38 66 0.0 9.7 0.00 0.00 0.00 34 1010.9
20260905230106 38 0 0.0 12.9 0.00 0.00 0.00 34 1011.0
20260905224617 38 122 1.6 11.3 0.00 0.00 0.00 33 1011.0
20260905223116 38 150 1.6 9.7 0.00 0.00 0.00 33 1010.9
20260905220105 38 0 3.2 11.3 0.00 0.00 0.00 32 1011.0
20260905214605 39 97 1.6 14.5 0.00 0.00 0.00 32 1011.2
20260905213105 38 175 0.0 11.3 0.00 0.00 0.00 34 1011.4
20260905211605 39 103 3.2 14.5 0.00 0.00 0.00 33 1011.5
20260905210108 39 112 3.2 16.1 0.00 0.00 0.00 34 1011.7
20260905204603 39 109 3.2 12.9 0.00 0.00 0.00 35 1011.9
20260905203100 39 0 1.6 12.9 0.00 0.00 0.00 34 1012.1
20260905201558 39 129 3.2 12.9 0.00 0.00 0.00 33 1012.4
20260905200105 39 124 1.6 12.9 0.00 0.00 0.00 33 1012.6